TimeEST,TemperatureF,Dew PointF,Humidity,Sea Level PressureIn,VisibilityMPH,Wind Direction,Wind SpeedMPH,Gust SpeedMPH,PrecipitationIn,Events,Conditions,WindDirDegrees,DateUTC
12:14 AM,37.4,32.0,81,30.23,10.0,SW,4.6,-,N/A,,Mostly Cloudy,220,2013-11-11 05:14:00
12:35 AM,37.4,32.0,81,30.22,10.0,SSW,8.1,-,N/A,,Overcast,210,2013-11-11 05:35:00
12:55 AM,37.4,32.0,81,30.22,10.0,SSW,6.9,-,N/A,,Overcast,210,2013-11-11 05:55:00
1:14 AM,37.4,32.0,81,30.21,10.0,SSW,8.1,-,N/A,,Overcast,210,2013-11-11 06:14:00
1:35 AM,37.4,32.0,81,30.20,10.0,SSW,8.1,-,N/A,,Overcast,200,2013-11-11 06:35:00
1:55 AM,37.4,32.0,81,30.19,10.0,SSW,6.9,-,N/A,,Overcast,210,2013-11-11 06:55:00
2:14 AM,37.4,32.0,81,30.19,10.0,SW,6.9,-,N/A,,Overcast,220,2013-11-11 07:14:00
2:35 AM,37.4,32.0,81,30.19,10.0,SW,6.9,-,N/A,,Overcast,230,2013-11-11 07:35:00
2:55 AM,39.2,32.0,75,30.18,10.0,SW,6.9,-,N/A,,Overcast,220,2013-11-11 07:55:00
3:14 AM,39.2,32.0,75,30.16,10.0,SW,9.2,-,N/A,,Overcast,220,2013-11-11 08:14:00
3:35 AM,39.2,32.0,75,30.16,10.0,SW,10.4,-,N/A,,Overcast,220,2013-11-11 08:35:00
3:55 AM,39.2,32.0,75,30.16,10.0,SW,10.4,16.1,N/A,,Overcast,230,2013-11-11 08:55:00
4:14 AM,39.2,32.0,75,30.15,10.0,SW,12.7,-,N/A,,Overcast,230,2013-11-11 09:14:00
4:35 AM,39.2,32.0,75,30.14,10.0,SW,11.5,-,N/A,,Overcast,220,2013-11-11 09:35:00
4:55 AM,39.2,32.0,75,30.13,10.0,SW,10.4,16.1,N/A,,Overcast,230,2013-11-11 09:55:00
5:14 AM,39.2,32.0,75,30.13,10.0,SW,10.4,16.1,N/A,,Overcast,230,2013-11-11 10:14:00
5:35 AM,39.2,32.0,75,30.12,10.0,SW,9.2,-,N/A,,Overcast,220,2013-11-11 10:35:00
5:55 AM,39.2,32.0,75,30.12,10.0,SW,10.4,-,N/A,,Overcast,220,2013-11-11 10:55:00
6:14 AM,39.2,32.0,75,30.12,10.0,SW,11.5,-,N/A,,Overcast,230,2013-11-11 11:14:00
6:35 AM,39.2,32.0,75,30.10,10.0,SW,12.7,-,N/A,,Overcast,220,2013-11-11 11:35:00
6:55 AM,41.0,32.0,70,30.09,10.0,SW,13.8,-,N/A,,Overcast,220,2013-11-11 11:55:00
7:14 AM,41.0,32.0,70,30.09,10.0,SW,13.8,-,N/A,,Overcast,220,2013-11-11 12:14:00
7:35 AM,41.0,32.0,70,30.08,10.0,SW,11.5,-,N/A,,Overcast,230,2013-11-11 12:35:00
7:55 AM,41.0,33.8,76,30.09,10.0,WSW,11.5,-,N/A,,Overcast,240,2013-11-11 12:55:00
8:14 AM,42.8,33.8,70,30.09,10.0,WSW,11.5,-,N/A,,Overcast,240,2013-11-11 13:14:00
8:35 AM,42.8,32.0,66,30.09,10.0,SW,11.5,18.4,N/A,,Overcast,230,2013-11-11 13:35:00
8:55 AM,42.8,32.0,66,30.09,10.0,SW,13.8,20.7,N/A,,Overcast,230,2013-11-11 13:55:00
9:14 AM,42.8,33.8,70,30.08,10.0,WSW,12.7,17.3,N/A,,Overcast,240,2013-11-11 14:14:00
9:35 AM,42.8,33.8,70,30.09,10.0,WSW,9.2,-,N/A,,Overcast,250,2013-11-11 14:35:00
9:55 AM,42.8,33.8,70,30.09,10.0,WSW,8.1,-,N/A,,Overcast,250,2013-11-11 14:55:00
10:14 AM,42.8,32.0,66,30.09,10.0,WSW,10.4,16.1,N/A,,Overcast,250,2013-11-11 15:14:00
10:35 AM,44.6,33.8,66,30.09,10.0,WSW,9.2,-,N/A,,Overcast,240,2013-11-11 15:35:00
10:55 AM,44.6,33.8,66,30.08,10.0,WSW,10.4,-,N/A,,Overcast,240,2013-11-11 15:55:00
11:14 AM,44.6,33.8,66,30.07,10.0,WSW,9.2,-,N/A,,Overcast,250,2013-11-11 16:14:00
11:35 AM,44.6,33.8,66,30.07,10.0,West,9.2,-,N/A,,Overcast,260,2013-11-11 16:35:00
11:55 AM,44.6,33.8,66,30.07,10.0,West,16.1,20.7,N/A,,Overcast,280,2013-11-11 16:55:00
12:14 PM,44.6,35.6,71,30.07,5.0,West,13.8,-,N/A,Rain,Rain,270,2013-11-11 17:14:00
12:35 PM,42.8,37.4,81,30.07,3.0,West,8.1,-,N/A,,Drizzle,280,2013-11-11 17:35:00
12:55 PM,42.8,37.4,81,30.06,3.0,West,4.6,-,N/A,Rain,Light Rain,280,2013-11-11 17:55:00
1:14 PM,41.0,39.2,93,30.06,5.0,West,6.9,-,N/A,Rain,Rain,270,2013-11-11 18:14:00
1:35 PM,41.0,37.4,87,30.06,4.0,West,8.1,-,N/A,Rain,Rain,270,2013-11-11 18:35:00
1:55 PM,41.0,37.4,87,30.06,5.0,West,5.8,-,N/A,Rain,Light Rain,280,2013-11-11 18:55:00
2:14 PM,41.0,37.4,87,30.06,5.0,NNW,8.1,-,N/A,Rain,Light Rain,330,2013-11-11 19:14:00
2:35 PM,39.2,37.4,93,30.07,10.0,NW,9.2,-,N/A,Rain,Light Rain,320,2013-11-11 19:35:00
2:55 PM,39.2,37.4,93,30.08,7.0,NNW,9.2,-,N/A,Rain,Light Rain,330,2013-11-11 19:55:00
3:14 PM,39.2,37.4,93,30.08,5.0,NNW,6.9,-,N/A,Rain,Light Rain,330,2013-11-11 20:14:00
3:35 PM,37.4,35.6,93,30.09,4.0,NNW,9.2,-,N/A,Rain,Rain,330,2013-11-11 20:35:00
3:55 PM,37.4,35.6,93,30.10,3.0,NW,6.9,-,N/A,Rain,Rain,320,2013-11-11 20:55:00
4:14 PM,35.6,33.8,93,30.12,4.0,NNW,9.2,19.6,N/A,Rain,Rain,330,2013-11-11 21:14:00
4:35 PM,33.8,32.0,93,30.13,1.2,North,13.8,21.9,N/A,Snow,Light Snow,360,2013-11-11 21:35:00
4:55 PM,32.0,30.2,93,30.14,2.5,North,10.4,-,N/A,Snow,Light Snow,360,2013-11-11 21:55:00
5:14 PM,32.0,30.2,93,30.16,3.0,North,9.2,-,N/A,Snow,Light Snow,350,2013-11-11 22:14:00
5:35 PM,32.0,30.2,93,30.16,2.0,North,11.5,17.3,N/A,Snow,Light Snow,350,2013-11-11 22:35:00
5:54 PM,30.2,30.2,100,30.18,2.5,North,11.5,24.2,N/A,Snow,Light Snow,360,2013-11-11 22:54:00
6:15 PM,30.2,30.2,100,30.19,2.5,North,11.5,-,N/A,Snow,Light Snow,360,2013-11-11 23:15:00
6:35 PM,30.2,28.4,93,30.20,4.0,North,11.5,21.9,N/A,Snow,Light Snow,350,2013-11-11 23:35:00
6:54 PM,30.2,26.6,86,30.21,10.0,North,13.8,-,N/A,,Mostly Cloudy,350,2013-11-11 23:54:00
7:15 PM,28.4,26.6,93,30.23,7.0,North,13.8,23.0,N/A,Snow,Light Snow,360,2013-11-12 00:15:00
7:35 PM,28.4,24.8,86,30.24,10.0,North,11.5,17.3,N/A,,Overcast,360,2013-11-12 00:35:00
7:54 PM,28.4,24.8,86,30.25,10.0,North,11.5,19.6,N/A,,Mostly Cloudy,360,2013-11-12 00:54:00
8:15 PM,28.4,24.8,86,30.26,10.0,North,11.5,-,N/A,,Scattered Clouds,360,2013-11-12 01:15:00
8:35 PM,28.4,24.8,86,30.27,10.0,North,10.4,17.3,N/A,,Clear,360,2013-11-12 01:35:00
8:54 PM,28.4,24.8,86,30.28,10.0,North,10.4,-,N/A,,Clear,360,2013-11-12 01:54:00
9:15 PM,28.4,23.0,80,30.28,10.0,North,10.4,18.4,N/A,,Clear,10,2013-11-12 02:15:00
9:33 PM,28.4,21.2,74,30.29,10.0,North,11.5,16.1,N/A,,Clear,10,2013-11-12 02:33:00
9:54 PM,28.4,21.2,74,30.30,10.0,North,13.8,17.3,N/A,,Clear,10,2013-11-12 02:54:00
10:15 PM,28.4,21.2,74,30.31,10.0,North,9.2,-,N/A,,Scattered Clouds,10,2013-11-12 03:15:00
10:35 PM,28.4,19.4,69,30.32,10.0,North,6.9,16.1,N/A,,Scattered Clouds,10,2013-11-12 03:35:00
10:54 PM,26.6,19.4,74,30.33,10.0,North,8.1,-,N/A,,Clear,360,2013-11-12 03:54:00
11:15 PM,26.6,19.4,74,30.34,10.0,North,10.4,-,N/A,,Clear,360,2013-11-12 04:15:00
11:34 PM,26.6,19.4,74,30.34,10.0,North,6.9,16.1,N/A,,Clear,360,2013-11-12 04:34:00
11:55 PM,26.6,19.4,74,30.35,10.0,North,8.1,-,N/A,,Clear,360,2013-11-12 04:55:00